Temperature
16 16 16 17 14 12 14 15 16 16 16 17 16 16 15 14 15 15 14 14 14 14 14 14 15 14 14 14 14 15 15 15 15 15 15 15 15 15 15 15 15 15 15 14 14 14 14 14 14
16 16 16 16 13 13 14 14 15 16 17 17 16 15 14 13 13 14 13 14 14 14 14 14 14 14 14 14 14 14 14 15 14 14 14 14 14 14 14 15 14 14 14 14 14 14 14 14 14
15 16 16 12 12 13 15 15 15 16 17 16 15 14 13 13 13 13 13 14 14 14 14 14 14 14 14 14 14 14 14 14 14 14 14 14 14 14 14 14 14 14 14 14 14 14 14 14 14
15 15 15 12 13 13 15 15 15 15 16 16 14 12 13 13 13 13 13 13 14 14 14 14 14 14 14 14 14 14 14 14 14 14 14 14 14 14 14 14 14 14 14 14 14 14 14 14 13
15 15 12 12 13 14 14 15 15 15 15 15 14 12 12 12 13 13 13 13 13 13 13 13 13 13 14 14 14 13 13 13 13 14 14 14 14 14 14 14 14 14 14 14 13 13 13 13 13
14 12 11 11 13 14 14 15 15 14 14 14 13 11 11 12 13 13 13 13 13 13 13 13 13 13 13 13 13 13 13 13 13 13 13 13 14 14 14 14 14 14 13 13 13 13 13 13 13
13 11 11 12 13 14 14 15 14 13 13 13 14 11 11 12 12 12 12 12 12 12 12 13 13 13 13 13 13 13 13 13 13 13 13 13 13 13 13 13 13 13 13 13 13 13 13 13 13
14 10 12 12 13 14 14 14 14 14 13 13 13 11 11 11 12 12 12 12 12 12 12 12 12 12 13 13 13 13 13 13 13 13 13 13 13 13 13 13 13 13 13 13 13 13 13 13 13
13 10 11 12 13 13 13 13 13 13 13 12 12 12 12 12 11 11 11 11 11 12 12 12 12 12 12 12 12 12 13 13 13 13 13 13 13 13 13 13 13 13 13 13 13 13 12 12 12
12 10 11 12 12 12 12 12 12 12 12 11 11 12 12 11 11 11 11 11 11 11 11 12 12 12 12 12 12 12 12 12 12 12 12 13 13 12 13 13 12 12 12 12 12 12 12 12 12
11 10 11 12 13 13 12 11 12 12 11 11 11 11 11 11 11 11 11 11 11 11 11 11 11 11 11 12 12 12 12 12 12 12 12 12 12 12 12 12 12 12 12 12 12 12 12 12 12
10 11 12 12 12 12 12 11 11 11 11 12 12 12 11 11 11 11 11 10 11 11 11 11 11 11 11 11 11 11 11 12 12 12 12 12 12 12 12 12 12 11 11 11 11 11 11 11 11
10 11 11 12 12 11 11 10 10 10 11 11 11 11 11 11 10 10 10 10 10 10 10 10 10 10 11 11 11 11 11 11 11 11 11 11 11 11 11 11 11 11 11 11 11 11 11 11 11
10 10 11 11 11 11 10 10 10 10 11 11 11 10 10 10 10 10 10 10 10 10 10 10 10 10 10 10 10 10 10 10 10 11 11 11 11 11 11 11 11 11 11 10 10 10 10 11 10
11 10 10 10 10 10 10 9 9 10 10 10 10 10 10 10 10 10 10 10 9 9 9 9 9 9 9 10 10 10 10 10 10 10 10 10 10 10 10 10 10 10 10 10 10 10 10 10 10
10 9 9 9 10 10 10 9 9 10 10 9 9 9 9 9 9 9 9 9 9 9 9 9 9 9 9 9 9 9 9 9 9 9 9 9 9 10 10 9 9 9 9 9 9 9 9 9 9
8 8 8 9 9 9 9 8 8 9 9 8 8 9 9 9 9 9 9 9 9 9 9 9 9 8 8 8 8 8 9 9 9 9 9 9 9 9 9 9 9 9 9 9 9 9 9 9 9
7 7 8 8 8 8 8 7 7 8 8 8 8 8 8 8 8 8 8 8 8 8 8 8 8 8 8 8 8 8 8 8 8 8 8 8 8 8 8 8 8 8 8 8 8 8 8 8 8
8 8 8 8 8 8 7 7 7 7 7 7 7 7 7 8 8 8 8 8 8 8 8 8 8 8 8 8 8 8 8 8 8 7 7 7 7 7 7 7 7 7 7 7 7 7 7 7 7
7 7 7 7 7 7 6 6 6 6 6 7 7 7 7 7 7 7 7 8 8 8 7 7 7 7 7 7 7 7 7 7 7 7 7 7 7 7 7 7 7 7 7 7 6 6 6 6 6
7 6 6 6 7 7 6 6 6 6 6 7 7 7 7 7 7 7 7 7 7 7 7 7 7 7 7 7 7 7 7 7 7 7 7 7 6 6 6 6 6 6 6 6 6 6 5 5 5
6 7 7 6 5 5 6 5 5 5 6 5 6 7 7 7 7 7 7 7 7 7 7 6 6 6 6 6 6 6 6 6 6 6 6 6 6 6 6 6 6 6 5 5 5 5 5 4 4
6 6 6 6 5 4 4 4 4 5 5 5 5 6 7 7 7 7 6 6 6 6 6 6 6 6 6 6 6 6 5 5 6 5 5 5 5 5 5 5 5 5 5 5 5 4 4 4 4
6 5 5 3 3 4 4 4 4 4 5 5 5 6 6 6 6 6 6 6 6 5 5 5 5 5 5 5 5 5 5 5 5 5 5 5 5 5 4 4 4 4 4 4 4 4 4 3 3
5 4 3 3 2 3 4 4 4 4 4 5 5 5 6 6 6 6 5 5 5 5 5 5 5 5 5 4 4 4 4 4 4 4 4 4 4 4 4 4 4 4 4 3 3 3 3 3 2
4 4 3 4 3 3 3 3 4 4 4 5 5 6 6 6 6 5 5 5 5 5 4 4 4 4 4 4 4 4 3 3 3 3 3 3 3 3 3 3 3 3 3 3 2 2 2 2 2
4 3 3 2 2 2 3 2 3 4 4 3 4 4 5 5 5 5 5 5 5 4 4 4 4 3 3 3 3 3 3 3 3 3 3 3 3 2 3 2 2 2 2 2 2 2 1 1 1
4 3 2 2 3 3 3 3 3 4 4 3 3 3 4 5 5 4 4 4 4 4 4 3 3 3 3 3 3 2 2 2 2 2 2 2 2 2 2 2 2 2 2 1 1 1 1 1 0
3 3 2 1 1 2 3 3 3 4 3 3 3 4 4 5 4 4 4 4 4 3 3 3 3 2 2 2 2 2 2 2 2 2 2 2 2 2 2 1 1 1 1 1 1 0 0 -0 -0
2 2 2 2 1 1 1 2 3 3 3 3 3 4 4 4 4 4 4 3 3 3 3 2 2 2 2 2 2 2 2 1 1 1 1 1 1 1 1 1 1 0 0 0 -0 -0 -0 -1 -1
Wind_Speed
9 7 2 4 5 4 2 4 2 1 1 1 3 5 7 5 3 4 1 1 5 5 7 9 11 11 12 12 12 12 12 12 12 12 12 12 12 12 12 12 12 11 11 11 11 11 11 11 11
5 3 4 4 4 2 4 4 2 2 2 2 4 5 6 5 3 4 1 2 5 6 8 8 11 11 12 12 12 12 12 12 12 12 13 13 12 12 12 11 12 11 11 11 11 11 11 10 10
4 2 4 4 3 5 4 3 3 1 1 2 4 5 4 3 2 1 1 3 6 7 8 9 11 12 12 12 12 12 12 12 12 12 12 12 12 12 11 11 11 10 10 10 10 10 10 10 9
3 4 4 3 4 4 4 4 3 1 2 4 5 5 3 2 1 1 2 4 7 6 8 10 11 12 12 12 12 12 12 12 12 12 12 12 12 12 11 11 10 10 10 9 9 9 9 9 9
3 4 3 1 4 4 3 3 1 2 1 2 4 4 2 3 3 5 4 6 7 6 8 10 11 12 12 12 12 12 12 12 11 11 11 11 11 11 10 10 9 9 9 9 9 8 8 8 8
4 4 3 3 4 3 3 2 1 1 2 2 4 4 1 1 4 4 5 6 7 7 8 9 11 11 12 12 11 11 11 11 11 10 10 10 10 10 10 9 9 8 8 8 8 7 8 8 8
4 3 4 4 3 3 2 0 3 3 3 1 3 5 2 0 2 5 6 7 7 8 8 8 9 10 11 11 11 11 11 11 10 10 10 10 10 10 9 9 8 7 7 7 7 6 7 7 7
4 4 2 3 4 4 1 1 1 2 2 1 3 6 4 3 3 7 7 7 6 7 7 8 9 9 9 10 11 11 11 10 10 10 9 9 9 9 9 9 8 7 6 6 6 6 6 6 6
4 3 4 4 4 3 0 2 2 2 4 3 3 2 4 6 6 8 7 5 5 6 5 6 7 9 9 9 9 10 9 10 10 9 9 9 8 8 7 8 8 7 6 4 4 5 6 6 5
3 4 5 3 2 2 0 1 0 2 3 3 3 4 6 7 7 7 6 5 5 4 4 4 5 6 8 8 8 8 8 9 9 8 8 7 7 7 7 7 7 7 6 5 4 4 5 5 5
4 5 4 2 1 2 1 1 1 3 1 3 5 6 7 7 6 6 5 5 5 4 3 3 4 6 6 6 6 6 7 7 7 7 7 7 7 7 7 6 6 6 7 6 6 6 5 5 4
3 3 3 2 1 1 1 1 1 1 3 4 6 8 7 7 6 6 6 5 4 4 3 3 4 5 5 6 5 6 5 5 5 6 6 6 5 5 5 4 5 5 5 5 5 4 4 4 3
2 2 2 2 1 2 2 1 1 2 2 3 6 7 7 7 5 4 4 4 5 4 3 3 3 4 4 5 4 5 4 4 5 6 6 6 5 4 4 4 4 5 4 4 4 4 3 3 3
2 1 1 1 1 1 2 2 1 4 3 4 5 5 5 6 6 4 4 4 4 4 3 3 4 4 4 4 3 4 4 5 5 5 5 6 5 4 4 3 4 4 4 4 3 3 3 2 2
2 1 2 2 2 2 2 3 4 5 4 4 4 4 5 4 5 5 5 5 5 4 4 3 4 4 4 4 4 4 4 5 5 5 5 5 5 4 4 3 3 4 4 4 4 4 3 3 2
2 1 2 3 3 3 4 6 4 3 5 4 3 3 4 3 4 4 4 4 4 4 4 3 3 3 4 4 3 4 4 5 4 4 5 5 5 4 4 3 2 4 4 4 2 2 2 3 3
1 2 4 3 2 2 4 6 4 2 4 4 4 3 3 3 2 3 4 4 4 4 4 4 4 3 3 3 3 4 4 4 4 4 4 4 4 4 4 2 2 4 4 3 2 2 2 2 3
5 4 3 4 3 2 3 6 5 3 4 4 4 4 4 4 4 4 4 4 4 4 4 4 3 3 3 2 3 2 3 3 3 3 3 3 3 3 3 2 2 3 2 2 2 2 2 2 3
3 4 4 4 2 2 5 7 7 4 4 5 5 5 5 5 4 3 3 4 4 4 4 3 3 2 3 2 2 1 1 0 1 2 2 2 2 2 2 2 2 2 1 1 1 1 2 2 2
2 2 3 2 1 1 4 7 7 5 6 6 7 6 6 4 3 3 4 4 4 4 3 4 3 3 3 2 1 1 1 1 0 0 1 1 1 1 2 1 0 1 0 1 1 1 1 1 2
3 4 4 3 3 2 2 6 4 3 2 3 3 4 4 6 6 5 5 4 4 4 4 4 3 3 2 2 2 2 2 1 1 1 1 1 1 1 1 0 0 0 1 1 1 0 0 1 2
4 3 3 2 0 3 1 3 5 3 3 3 4 4 5 5 5 5 5 5 5 5 4 3 3 2 2 3 3 3 2 1 2 2 1 2 2 2 2 1 1 1 1 1 2 1 1 1 2
4 1 1 1 2 2 1 3 7 2 5 6 5 5 5 5 6 6 6 6 5 4 4 4 3 2 2 2 3 3 2 1 1 1 1 2 2 2 2 2 1 1 2 2 2 2 2 2 2
2 4 4 4 3 3 5 5 6 5 7 5 5 5 5 4 5 5 4 5 4 3 3 3 3 2 2 2 2 3 2 1 1 1 2 2 2 2 2 2 2 2 2 3 3 3 3 3 3
3 4 2 3 2 6 2 4 8 6 5 6 6 5 4 4 5 4 4 4 4 4 4 4 4 2 2 2 2 2 3 3 3 2 2 2 2 2 3 2 2 3 3 3 3 3 3 3 4
4 6 6 5 5 5 2 6 7 5 3 3 3 3 2 3 4 5 5 5 5 5 4 4 4 3 2 2 2 1 2 2 2 3 3 3 3 3 3 3 3 3 3 3 3 3 3 3 4
4 4 4 5 1 2 5 6 6 2 1 1 2 2 3 3 4 4 4 4 4 5 4 5 4 3 2 2 1 1 2 2 2 3 2 2 3 3 3 3 4 3 3 3 3 3 4 3 3
3 5 4 4 4 4 5 5 5 5 6 4 3 3 4 3 3 2 3 4 4 4 3 3 3 3 2 2 2 2 2 2 2 2 3 3 3 3 3 4 4 4 3 3 3 4 4 3 4
3 3 4 4 4 5 4 7 5 7 7 7 7 6 5 5 4 3 3 3 2 2 2 2 2 2 2 2 2 2 2 2 2 3 3 4 3 3 3 4 4 4 4 4 4 4 4 4 4
4 5 6 5 5 4 4 7 4 4 4 5 5 4 4 4 3 3 3 2 2 2 2 2 2 2 3 2 2 2 2 2 2 3 3 4 4 3 4 4 4 4 4 4 4 5 5 5 5
Wind_Direction
334 337 47 57 60 60 242 262 263 340 28 40 71 89 103 99 113 146 147 102 121 126 133 129 125 119 114 109 107 106 102 99 96 94 91 91 89 86 87 86 82 80 79 78 78 78 79 82 82
339 355 55 63 101 157 259 251 246 252 191 141 67 74 79 77 62 94 70 116 114 117 121 122 125 121 116 111 107 105 101 98 95 92 89 88 87 84 82 85 83 81 79 77 76 75 75 77 79
337 42 82 86 143 185 216 225 198 277 9 94 68 49 79 90 77 98 171 124 100 101 110 116 117 116 113 110 107 104 101 98 94 90 88 86 84 82 80 82 83 83 83 80 78 77 75 72 72
49 49 59 93 208 224 210 219 205 148 35 49 96 69 56 28 73 134 112 103 104 94 106 114 114 113 110 108 107 104 102 99 95 91 89 88 85 82 80 80 80 80 82 81 80 78 76 72 69
62 82 85 201 234 242 235 241 219 141 114 43 99 101 53 355 73 99 99 105 108 96 103 114 116 114 111 106 104 102 99 98 95 92 91 89 87 85 81 79 80 80 79 77 77 75 74 73 70
62 81 125 214 233 246 255 245 174 105 112 73 97 108 133 64 93 96 92 94 94 96 93 106 114 113 109 105 103 100 97 95 93 91 90 88 86 84 82 78 79 80 81 78 75 71 71 69 66
115 120 178 199 218 244 246 134 129 127 103 77 125 116 150 8 106 102 95 91 87 87 83 82 94 103 105 103 101 99 96 93 91 88 88 87 84 80 78 73 73 76 79 79 75 69 70 64 63
132 127 185 209 208 228 267 33 68 113 123 61 106 138 178 194 132 99 90 87 84 78 74 74 80 85 88 94 97 96 93 90 87 83 82 82 79 75 72 68 64 67 74 76 74 69 64 58 61
107 114 199 209 200 213 352 73 6 27 91 55 45 122 151 137 118 104 96 85 84 81 75 75 80 84 86 90 92 91 90 86 82 77 77 77 71 68 67 63 60 58 60 67 71 67 57 49 48
117 179 215 218 193 179 78 92 145 72 63 66 55 60 102 118 124 125 126 127 115 102 89 72 79 84 86 88 84 82 83 82 77 75 75 77 74 68 64 57 52 51 45 44 47 49 47 40 34
158 188 202 229 215 158 133 360 349 139 172 184 161 151 137 128 132 139 142 145 143 130 109 90 82 85 86 84 85 80 77 78 76 75 78 78 71 63 57 51 40 34 33 32 29 32 32 36 35
168 216 199 218 223 143 160 160 0 219 207 175 162 152 146 147 158 162 161 157 140 124 120 110 92 87 90 93 91 88 81 74 70 72 77 75 66 56 52 50 39 34 32 33 30 27 25 26 22
196 218 212 170 108 114 100 167 195 246 223 143 139 144 152 156 159 163 161 143 133 131 133 128 111 102 95 94 92 88 84 82 78 71 68 74 74 65 56 48 42 33 33 35 30 27 25 22 10
190 163 213 198 155 196 164 268 188 235 175 143 147 156 162 161 160 150 144 144 147 147 149 137 129 112 102 98 92 89 88 85 79 69 65 74 77 73 65 52 42 33 26 22 34 26 17 10 8
112 91 326 243 202 195 122 298 226 219 160 158 171 171 171 175 163 165 170 164 161 159 152 143 136 112 107 99 94 91 90 89 80 67 63 65 71 77 72 61 38 23 22 25 33 26 25 17 3
74 95 250 263 179 173 153 244 235 205 157 179 190 187 181 184 176 172 162 156 153 148 147 145 130 116 109 100 93 92 93 90 81 71 62 58 61 70 71 63 33 21 29 34 33 16 9 1 349
71 195 224 268 212 171 175 236 239 197 166 193 198 191 184 178 178 180 169 162 157 154 148 140 126 126 116 104 99 95 92 86 80 70 57 48 47 58 67 62 32 32 39 37 27 19 8 348 338
203 203 218 230 243 190 218 250 260 230 193 207 200 197 190 193 208 192 177 163 151 148 143 138 132 129 116 100 87 80 73 70 72 72 59 48 38 47 59 54 32 43 48 29 26 14 4 335 328
173 183 225 249 264 213 228 251 260 244 214 218 212 208 205 206 207 177 166 148 137 134 136 138 132 136 128 127 125 120 118 77 56 54 48 33 31 40 50 46 39 51 56 19 15 15 4 351 352
187 213 247 292 314 252 258 268 265 243 222 214 210 210 209 203 192 175 163 149 145 150 149 146 148 146 146 158 171 171 169 189 187 34 4 359 21 17 25 45 17 50 53 17 14 40 14 340 7
232 211 216 232 335 349 318 303 277 269 225 211 199 195 195 189 191 183 172 167 161 165 170 167 165 154 146 120 103 79 57 43 22 310 283 315 311 325 330 289 273 250 174 227 253 196 97 298 308
227 233 203 195 125 279 142 279 276 254 255 231 222 209 202 199 189 180 175 173 177 182 174 167 167 155 156 138 136 137 146 207 244 243 243 296 300 293 293 284 259 248 236 233 243 233 219 213 272
198 203 154 164 164 297 246 212 275 260 242 243 234 225 217 204 186 180 181 182 182 174 170 171 166 163 161 158 162 164 180 224 267 284 266 278 300 294 290 280 261 261 262 249 236 234 234 220 235
138 64 45 47 76 263 230 195 266 232 222 226 228 231 223 203 191 186 178 163 164 162 162 163 166 174 169 165 177 179 189 215 258 289 269 274 283 296 298 294 277 260 260 254 244 231 235 236 242
95 102 46 358 336 250 234 208 251 249 229 209 214 223 218 192 182 178 165 162 167 169 171 171 169 182 187 180 196 202 203 205 219 248 254 265 276 282 279 293 280 272 261 256 251 237 241 236 237
180 152 165 196 223 270 280 230 256 266 252 215 198 189 178 177 184 186 183 179 181 180 176 175 179 186 191 192 222 230 226 220 231 243 251 250 255 263 274 275 273 272 272 271 261 255 247 246 241
159 190 168 143 162 263 264 278 295 247 243 184 166 157 186 189 183 186 186 183 184 183 186 185 182 190 203 209 232 243 241 244 245 249 251 253 261 271 268 264 267 269 271 263 259 260 256 251 248
155 151 122 149 178 242 273 262 244 232 222 216 207 208 216 205 199 194 188 186 189 189 185 180 181 192 206 211 226 252 252 255 251 249 260 262 261 266 262 264 267 269 269 265 258 260 255 250 255
163 164 159 157 173 183 247 263 231 220 210 203 210 212 212 208 205 207 203 194 189 176 172 179 187 193 211 224 236 252 265 270 265 260 261 261 264 265 265 263 264 263 261 261 257 260 257 255 263
204 190 165 173 221 198 208 266 273 224 209 196 211 223 223 216 209 206 194 182 185 192 197 202 207 211 222 227 236 250 263 271 268 270 271 274 263 262 263 262 263 265 266 260 257 260 263 257 262
Height
1510 1511 1512 1513 1517 1526 1528 1521 1514 1512 1511 1511 1510 1510 1512 1517 1521 1527 1525 1523 1525 1526 1527 1528 1529 1530 1531 1531 1532 1532 1532 1533 1533 1534 1534 1534 1534 1534 1535 1534 1534 1534 1535 1535 1535 1535 1535 1535 1535
1510 1511 1513 1513 1522 1532 1528 1518 1514 1511 1511 1511 1511 1512 1513 1517 1519 1521 1522 1523 1524 1526 1527 1528 1529 1530 1531 1531 1532 1532 1532 1533 1534 1534 1534 1535 1535 1535 1535 1535 1535 1535 1535 1535 1536 1536 1536 1535 1535
1510 1511 1513 1516 1524 1528 1521 1514 1512 1510 1510 1510 1512 1514 1516 1518 1520 1521 1522 1523 1524 1525 1526 1527 1529 1529 1530 1531 1532 1532 1533 1533 1534 1534 1534 1535 1535 1535 1535 1536 1535 1536 1536 1536 1536 1536 1536 1536 1536
1510 1512 1514 1520 1522 1519 1514 1511 1510 1509 1510 1510 1511 1516 1518 1520 1520 1521 1522 1523 1524 1525 1526 1527 1528 1529 1530 1531 1532 1533 1533 1533 1534 1534 1534 1535 1535 1535 1535 1535 1536 1536 1536 1536 1536 1536 1536 1536 1536
1509 1511 1517 1523 1520 1515 1511 1509 1509 1509 1510 1511 1512 1516 1518 1520 1520 1521 1522 1523 1524 1525 1526 1527 1528 1529 1530 1531 1532 1533 1533 1533 1534 1534 1534 1535 1535 1535 1535 1535 1535 1536 1536 1536 1536 1536 1536 1536 1536
1510 1511 1522 1524 1518 1513 1510 1509 1509 1509 1510 1511 1513 1516 1519 1520 1519 1521 1522 1523 1524 1525 1526 1527 1528 1529 1530 1531 1532 1532 1533 1533 1534 1534 1534 1535 1535 1535 1535 1535 1535 1535 1535 1535 1535 1536 1536 1535 1535
1510 1514 1519 1518 1516 1513 1510 1509 1509 1510 1510 1512 1513 1515 1518 1519 1519 1521 1522 1523 1524 1525 1526 1527 1527 1529 1530 1531 1531 1532 1532 1533 1533 1534 1534 1534 1534 1535 1535 1535 1535 1535 1535 1535 1535 1535 1535 1535 1535
1508 1513 1516 1516 1514 1512 1509 1509 1509 1510 1511 1512 1513 1514 1516 1518 1519 1520 1521 1523 1524 1525 1525 1526 1527 1528 1529 1530 1531 1531 1532 1532 1533 1533 1534 1534 1534 1534 1534 1534 1534 1534 1534 1534 1534 1534 1534 1534 1534
1507 1515 1516 1513 1511 1510 1508 1509 1510 1510 1510 1511 1513 1514 1515 1517 1518 1520 1521 1522 1523 1524 1525 1525 1526 1527 1528 1529 1530 1531 1531 1532 1532 1533 1533 1533 1533 1534 1533 1533 1533 1533 1533 1533 1533 1533 1533 1533 1533
1506 1514 1511 1508 1508 1508 1508 1509 1510 1510 1510 1512 1513 1514 1515 1516 1518 1518 1519 1520 1521 1522 1523 1524 1525 1526 1527 1528 1529 1530 1530 1531 1531 1532 1532 1532 1532 1532 1532 1532 1532 1532 1532 1532 1531 1531 1531 1531 1531
1505 1508 1507 1507 1507 1507 1507 1509 1509 1510 1511 1511 1511 1513 1514 1516 1517 1517 1518 1519 1520 1521 1522 1523 1524 1525 1527 1527 1528 1529 1529 1530 1530 1531 1531 1531 1531 1531 1531 1531 1531 1531 1531 1530 1530 1530 1530 1530 1530
1505 1504 1505 1505 1506 1506 1507 1508 1509 1509 1509 1510 1511 1512 1513 1514 1515 1516 1517 1518 1518 1520 1521 1522 1523 1524 1525 1526 1527 1528 1528 1529 1529 1529 1529 1529 1529 1530 1530 1530 1529 1529 1529 1529 1528 1528 1528 1528 1528
1503 1504 1504 1504 1505 1506 1506 1507 1508 1508 1508 1509 1510 1511 1512 1513 1514 1515 1516 1516 1518 1518 1520 1521 1522 1523 1524 1525 1526 1526 1527 1527 1528 1528 1528 1528 1528 1528 1528 1528 1528 1527 1527 1527 1527 1526 1526 1526 1526
1503 1503 1504 1504 1504 1505 1506 1506 1507 1507 1507 1508 1508 1509 1510 1511 1512 1513 1514 1515 1516 1517 1518 1519 1521 1521 1522 1523 1524 1525 1525 1526 1526 1526 1526 1526 1526 1526 1526 1526 1526 1526 1525 1525 1525 1525 1524 1524 1523
1503 1504 1505 1504 1503 1504 1505 1507 1506 1505 1506 1507 1507 1508 1509 1510 1511 1511 1513 1513 1514 1515 1517 1518 1519 1520 1521 1521 1522 1523 1524 1524 1524 1525 1525 1525 1525 1525 1524 1524 1524 1524 1524 1523 1523 1522 1522 1521 1521
1503 1506 1508 1504 1502 1503 1507 1508 1504 1504 1505 1505 1506 1507 1507 1508 1509 1510 1511 1512 1513 1514 1515 1516 1517 1518 1519 1520 1520 1521 1522 1522 1523 1523 1523 1523 1523 1523 1523 1522 1522 1522 1521 1521 1520 1520 1519 1519 1518
1507 1510 1508 1505 1502 1502 1505 1506 1503 1503 1504 1504 1505 1505 1505 1506 1507 1508 1509 1510 1511 1512 1513 1514 1515 1516 1517 1518 1519 1519 1520 1520 1520 1521 1521 1521 1521 1521 1520 1520 1520 1519 1519 1518 1518 1517 1517 1516 1515
1509 1509 1507 1506 1503 1503 1504 1504 1501 1502 1503 1503 1503 1503 1503 1504 1504 1506 1507 1508 1509 1510 1511 1512 1513 1514 1515 1516 1517 1517 1518 1518 1518 1519 1519 1519 1519 1518 1518 1518 1517 1517 1516 1516 1515 1515 1514 1514 1513
1503 1505 1506 1504 1502 1503 1504 1503 1500 1500 1500 1500 1500 1500 1501 1502 1503 1504 1505 1506 1507 1508 1509 1510 1511 1512 1513 1514 1514 1514 1515 1516 1516 1516 1517 1517 1516 1516 1515 1515 1515 1514 1514 1513 1512 1512 1511 1511 1510
1504 1506 1507 1505 1503 1504 1504 1502 1499 1497 1497 1496 1497 1497 1498 1499 1500 1501 1502 1503 1504 1505 1506 1508 1509 1510 1511 1511 1512 1512 1513 1513 1514 1514 1514 1514 1514 1513 1513 1512 1512 1511 1511 1510 1510 1509 1508 1508 1507
1505 1507 1506 1507 1505 1504 1505 1504 1499 1496 1495 1494 1494 1495 1496 1496 1497 1498 1499 1500 1501 1503 1504 1505 1506 1507 1508 1509 1509 1510 1510 1511 1511 1511 1511 1511 1511 1511 1510 1510 1509 1508 1508 1507 1507 1506 1506 1505 1505
1505 1503 1504 1505 1509 1512 1509 1512 1500 1496 1495 1493 1492 1492 1493 1494 1495 1496 1497 1498 1499 1500 1502 1503 1504 1505 1506 1506 1506 1506 1507 1507 1507 1507 1508 1508 1508 1507 1507 1507 1506 1506 1505 1504 1504 1503 1503 1502 1502
1503 1502 1504 1505 1510 1514 1511 1514 1503 1497 1495 1492 1490 1490 1490 1491 1492 1493 1495 1496 1497 1498 1499 1500 1501 1502 1503 1503 1503 1504 1504 1504 1504 1504 1504 1504 1504 1504 1503 1503 1503 1502 1501 1501 1500 1500 1499 1499 1498
1501 1504 1507 1511 1516 1517 1510 1513 1504 1497 1490 1488 1488 1487 1487 1489 1490 1491 1493 1494 1495 1496 1497 1498 1499 1499 1500 1501 1501 1501 1501 1501 1500 1500 1500 1500 1500 1500 1500 1499 1499 1498 1498 1497 1497 1496 1496 1495 1495
1503 1511 1519 1521 1524 1516 1507 1508 1500 1488 1485 1485 1485 1485 1485 1486 1487 1489 1490 1491 1492 1493 1494 1494 1495 1496 1497 1498 1498 1498 1497 1497 1497 1497 1497 1496 1496 1496 1495 1495 1495 1494 1494 1493 1492 1492 1491 1491 1490
1503 1507 1517 1520 1520 1514 1508 1506 1494 1485 1483 1482 1483 1483 1484 1485 1486 1487 1487 1488 1489 1490 1491 1491 1492 1493 1494 1494 1494 1494 1494 1494 1494 1494 1494 1493 1493 1492 1492 1491 1491 1490 1489 1489 1488 1487 1487 1486 1486
1502 1506 1507 1516 1520 1518 1509 1503 1491 1484 1483 1482 1482 1482 1483 1483 1484 1484 1485 1486 1487 1488 1488 1489 1489 1490 1490 1491 1491 1491 1491 1491 1490 1490 1490 1490 1489 1488 1488 1487 1486 1485 1484 1484 1483 1482 1482 1481 1481
1500 1503 1510 1514 1516 1513 1507 1503 1493 1484 1482 1482 1482 1481 1481 1482 1482 1483 1483 1484 1485 1486 1486 1486 1487 1487 1487 1488 1488 1488 1488 1488 1487 1487 1486 1486 1485 1484 1484 1483 1482 1481 1480 1479 1478 1477 1477 1476 1476
1501 1503 1505 1511 1513 1514 1510 1498 1482 1480 1479 1479 1479 1479 1479 1480 1480 1481 1482 1482 1483 1483 1483 1484 1484 1484 1484 1484 1484 1484 1484 1484 1483 1483 1482 1482 1481 1480 1479 1478 1477 1476 1475 1474 1473 1473 1472 1472 1471
1498 1498 1503 1507 1510 1512 1512 1498 1477 1477 1476 1477 1477 1478 1478 1479 1479 1479 1480 1480 1481 1481 1481 1481 1481 1481 1481 1481 1481 1481 1480 1480 1479 1479 1478 1477 1476 1476 1475 1474 1472 1471 1470 1469 1469 1468 1467 1467 1466